Location: Bad Rothenbrunn
(47.2167°N, 11.2167°E)
Time: 04:30:00
(UTC+00:00)

ASTEX 1 - Pass Details

Date: 03 March 2021
Orbit: 721 x 742 km, 92.7° (Epoch: 22 April)

Event Time Altitude Azimuth Distance (km) Brightness Sun altitude
Rises 19:20:05 0° 4° (N) 3,151 6.8 -23.8°
Reaches altitude 10° 19:22:23 10° 4° (N) 2,224 6.0 -24.1°
Maximum altitude 19:27:18 80° 278° (W) 738 3.4 -24.9°
Enters shadow 19:30:11 25° 194° (SSW) 1,437 4.8 -25.4°
